User: anonymous   Login
Location: NJAA Observatory
(40.6819°N, 74.8979°W)
Time: 07:26:45
(UTC-04:00)
Language:

Cosmos 1939 Rocket - Orbit

View from above orbital plane
View from above orbital plane
View from above satellite
View from above satellite

Ground track
Ground track

The orbit data is extracted from the following two-line orbital elements,

1 19046U 88032B   17117.90639020 -.00000386 +00000-0 -24295-4 0  9992
2 19046 097.5334 166.2770 0038329 137.0371 223.3858 15.02186810564805
Epoch (UTC): 27 April 2017 21:45:12
Eccentricity: 0.0038329
inclination: 97.5334°
perigee height: 533 km
apogee height: 587 km
right ascension of ascending node: 166.2770°
argument of perigee: 137.0371°
revolutions per day: 15.02186810
mean anomaly at epoch: 223.3858°
orbit number at epoch: 56480

The dashed part of the orbit path shows where the satellite is in the earth's shadow,  

DLR